User: anonymous   Login
Location: Kra?nica
(53.4833°N, 14.6167°E)
Time: 16:32:20
(UTC+00:00)
Language:

Cosmos 1980 Rocket - Orbit

View from above orbital plane
View from above orbital plane
View from above satellite
View from above satellite

Ground track
Ground track

The orbit data is extracted from the following two-line orbital elements,

1 19650U 88102B   24199.83300554  .00000378  00000-0  21556-3 0  9993
2 19650  71.0015 333.5143 0015271 211.5663 148.4545 14.15985426841974
Epoch (UTC): 17 July 2024 19:59:31
Eccentricity: 0.0015271
inclination: 71.0015°
perigee height: 828 km
apogee height: 850 km
right ascension of ascending node: 333.5143°
argument of perigee: 211.5663°
revolutions per day: 14.15985426
mean anomaly at epoch: 148.4545°
orbit number at epoch: 84197

The dashed part of the orbit path shows where the satellite is in the earth's shadow,  

DLR